User: anonymous   Login
Location: Unspecified
(0.0000°N, 0.0000°E)
Time: 12:08:59
(UTC+00:00)
Language:

Elektron 3 - Orbit

View from above orbital plane
View from above orbital plane
View from above satellite
View from above satellite

Ground track
Ground track

The orbit data is extracted from the following two-line orbital elements,

1 00829U 64038A   22337.67076667  .00001178  00000-0  32678-3 0  9998
2 00829  60.8017 181.9163 2972806   4.6107 357.6602  9.15176141896809
Epoch (UTC): 03 December 2022 16:05:54
Eccentricity: 0.2972806
inclination: 60.8017°
perigee height: 406 km
apogee height: 6146 km
right ascension of ascending node: 181.9163°
argument of perigee: 4.6107°
revolutions per day: 9.15176141
mean anomaly at epoch: 357.6602°
orbit number at epoch: 89680

The dashed part of the orbit path shows where the satellite is in the earth's shadow,  

DLR